NKS352 KEWR-KATL

Flight info

Callsign NKS352
Flight time N/A
Altitude 38000
Route LANNA J48 MOL FLASK OZZZI2
Aircraft A21N/M-SDE2E3FGHIRWXY/LB1

Departure

Time 2026-04-25 00:53
Airport Newark Liberty International Airport (KEWR)

Arrival

Time N/A
Airport Hartsfield Jackson Atlanta International Airport (KATL)
Time Latitude Longitude Altitude Speed Heading
2026-04-25 00:12 40.68849 -74.17678 23 ft 0 kts 194°
2026-04-25 00:29 40.68866 -74.17672 25 ft 4 kts 190°
2026-04-25 00:29 40.68892 -74.17669 26 ft 4 kts 172°
2026-04-25 00:29 40.68914 -74.17679 25 ft 1 kts 141°
2026-04-25 00:38 40.68912 -74.17677 25 ft 3 kts 141°
2026-04-25 00:38 40.68875 -74.17603 25 ft 13 kts 117°
2026-04-25 00:38 40.68836 -74.17498 25 ft 13 kts 116°
2026-04-25 00:38 40.68829 -74.17404 25 ft 7 kts 25°
2026-04-25 00:39 40.68873 -74.17377 24 ft 8 kts 26°
2026-04-25 00:39 40.68964 -74.17318 23 ft 21 kts 25°
2026-04-25 00:39 40.69134 -74.17215 26 ft 32 kts 30°
2026-04-25 00:39 40.69334 -74.17092 23 ft 31 kts 14°
2026-04-25 00:40 40.69488 -74.17074 24 ft 21 kts 356°
2026-04-25 00:40 40.69625 -74.17121 26 ft 20 kts 337°
2026-04-25 00:40 40.69744 -74.17212 23 ft 19 kts 320°
2026-04-25 00:40 40.69838 -74.17337 23 ft 19 kts 307°
2026-04-25 00:41 40.69892 -74.17491 24 ft 18 kts 282°
2026-04-25 00:41 40.69909 -74.17655 23 ft 17 kts 295°
2026-04-25 00:41 40.69974 -74.17709 23 ft 6 kts 301°
2026-04-25 00:41 40.69980 -74.17770 23 ft 11 kts 276°
2026-04-25 00:42 40.69989 -74.17932 23 ft 22 kts 274°
2026-04-25 00:42 40.69999 -74.18086 27 ft 13 kts 274°
2026-04-25 00:42 40.70039 -74.18134 26 ft 3 kts
2026-04-25 00:42 40.70046 -74.18133 23 ft 0 kts 13°
2026-04-25 00:43 40.70050 -74.18131 23 ft 0 kts 17°
2026-04-25 00:45 40.70058 -74.18128 25 ft 5 kts 17°
2026-04-25 00:46 40.70130 -74.18101 27 ft 8 kts 15°
2026-04-25 00:46 40.70132 -74.18101 23 ft 0 kts 15°
2026-04-25 00:49 40.70163 -74.18090 23 ft 11 kts 15°
2026-04-25 00:50 40.70177 -74.18085 23 ft 0 kts 15°
2026-04-25 00:51 40.70210 -74.18072 23 ft 11 kts 15°
2026-04-25 00:51 40.70271 -74.18024 23 ft 7 kts 75°
2026-04-25 00:51 40.70276 -74.17956 23 ft 7 kts 95°
2026-04-25 00:52 40.70266 -74.17844 23 ft 28 kts 96°
2026-04-25 00:52 40.70251 -74.17559 24 ft 66 kts 96°
2026-04-25 00:52 40.70161 -74.16271 30 ft 143 kts 94°
2026-04-25 00:52 40.70072 -74.14915 403 ft 153 kts 92°
2026-04-25 00:53 40.69999 -74.13977 819 ft 155 kts 94°
2026-04-25 00:53 40.69876 -74.12507 1437 ft 174 kts 91°
2026-04-25 00:53 40.69733 -74.10789 1766 ft 204 kts 93°
2026-04-25 00:53 40.69579 -74.08813 2198 ft 230 kts 97°
2026-04-25 00:54 40.68907 -74.06806 2695 ft 251 kts 128°
2026-04-25 00:54 40.67489 -74.05420 3350 ft 265 kts 158°
2026-04-25 00:54 40.65633 -74.05027 3939 ft 278 kts 189°
2026-04-25 00:54 40.63812 -74.05797 4720 ft 276 kts 218°
2026-04-25 00:55 40.62473 -74.07521 5525 ft 267 kts 247°
2026-04-25 00:55 40.61685 -74.10529 6763 ft 257 kts 266°
2026-04-25 00:55 40.61447 -74.12046 7407 ft 255 kts 267°
2026-04-25 00:55 40.61120 -74.14336 8417 ft 252 kts 271°